Wind_Speed
1 2 2 2 2 2 2 0 0 1 1 1 2 2 2 2 2 1 1 1 1 1 1 1 2 2 2 2 2 2 2 2 2 2 2 2 3 3 3 3 3 3 3 3 4 4 4 4 4
2 2 2 3 3 2 2 2 2 2 2 2 2 2 2 2 2 3 2 2 2 2 3 3 3 4 4 3 3 3 2 3 3 3 4 4 4 4 4 4 4 4 4 4 4 5 5 5 5
3 3 3 3 4 3 2 2 2 3 3 3 3 3 3 3 3 4 4 4 4 4 4 5 4 4 4 4 4 4 4 4 4 4 4 4 4 4 4 4 4 4 4 5 5 5 5 6 6
4 4 4 4 4 4 4 3 4 4 4 5 5 4 4 5 5 5 5 5 5 5 5 5 5 5 5 5 4 4 4 5 5 5 5 5 5 5 5 5 6 5 5 6 6 6 6 6 7
4 5 5 5 5 6 5 5 5 6 6 6 6 5 6 6 6 6 7 6 6 6 6 6 6 5 6 6 5 6 6 5 5 5 5 6 6 6 6 6 6 7 7 7 6 6 7 7 7
5 5 5 6 6 6 6 6 7 7 7 7 8 7 7 7 8 7 7 7 7 7 7 6 7 6 6 7 7 7 7 7 6 7 7 7 7 8 7 7 7 7 7 8 7 7 8 8 8
4 5 6 6 7 7 7 8 8 8 8 9 9 9 8 8 8 8 8 8 8 8 7 8 7 8 8 8 8 8 8 7 7 7 8 8 8 9 9 9 9 8 8 8 8 8 9 8 8
5 5 6 7 7 8 8 9 9 9 9 10 10 10 9 9 9 9 9 9 9 8 9 9 8 9 9 8 8 8 7 8 8 9 9 9 10 10 9 9 10 10 10 10 10 10 10 10 9
6 6 7 7 8 8 8 9 10 10 10 11 11 10 10 10 10 10 10 10 10 10 10 10 9 9 9 9 9 8 8 8 9 9 10 10 9 10 10 10 11 11 11 11 11 11 11 10 10
7 7 8 8 9 9 9 10 10 11 11 11 12 11 11 11 11 11 11 11 11 11 11 11 10 11 10 10 10 10 10 10 10 10 10 11 10 10 11 11 12 12 12 12 11 11 11 11 10
7 7 8 8 9 9 9 10 10 11 11 12 12 12 12 12 12 12 11 11 12 12 12 11 11 11 11 11 11 11 11 11 11 11 11 11 11 11 11 11 11 12 12 12 11 11 10 10 10
7 7 8 8 9 9 10 10 11 11 11 12 12 12 12 13 12 12 12 12 12 12 12 11 11 11 11 11 11 10 11 11 11 11 11 11 12 12 12 12 12 12 12 11 11 11 11 10 10
7 7 8 8 9 9 10 11 11 12 12 12 13 13 13 13 13 12 13 13 13 12 12 11 11 11 11 11 11 11 12 12 12 12 12 12 12 13 13 12 13 13 12 12 11 11 11 11 11
8 8 9 9 9 10 11 11 12 12 13 13 13 13 13 13 13 13 13 14 14 13 13 12 13 12 12 12 12 12 13 13 13 13 13 13 13 13 13 13 13 13 12 12 11 10 11 11 11
8 8 9 9 9 10 11 11 12 12 13 14 14 14 13 14 14 14 14 14 14 13 13 13 13 13 14 14 14 14 14 14 14 13 13 13 13 13 13 13 13 13 12 12 12 12 12 11 11
8 9 9 9 10 10 11 12 12 12 13 14 15 15 15 15 14 14 14 15 14 13 13 14 14 14 14 14 15 15 15 14 14 14 14 14 14 14 14 14 13 13 13 12 12 11 11 11 11
8 9 10 10 11 11 11 12 13 13 14 15 15 15 15 15 15 14 15 15 15 14 14 14 15 15 15 15 15 15 15 15 15 14 14 14 14 14 14 14 13 13 13 12 12 12 12 11 11
8 9 10 11 11 12 12 13 13 14 14 15 15 15 15 15 15 15 15 15 15 15 15 15 15 15 15 15 15 15 16 16 15 14 14 14 14 13 13 14 14 13 13 12 12 12 12 11 11
9 10 9 11 12 12 13 13 13 14 14 14 14 15 15 14 15 15 15 15 15 15 15 16 16 15 15 15 15 16 16 15 15 14 14 13 13 14 13 13 14 13 13 12 12 12 12 12 12
9 10 11 12 13 13 12 13 13 13 14 14 14 14 14 14 14 15 16 16 16 16 15 15 15 16 15 15 16 15 15 15 14 14 13 13 13 13 13 14 14 14 13 12 12 12 12 12 12
10 10 11 11 12 12 12 13 13 13 14 14 14 14 14 15 15 15 16 16 16 16 16 15 15 16 16 16 16 16 15 15 14 13 13 13 12 12 13 14 14 14 13 12 12 12 12 12 12
10 10 10 10 11 11 11 13 14 14 14 14 14 14 15 15 15 16 16 16 16 16 16 16 16 16 16 16 16 16 15 15 15 14 13 13 13 13 14 14 13 13 13 13 12 12 12 12 11
10 9 10 10 10 11 11 13 15 14 15 15 14 15 15 15 15 15 15 16 16 16 16 16 16 16 16 16 16 16 15 15 14 14 13 13 13 14 14 13 13 13 13 13 13 12 12 12 12
9 9 9 10 11 11 11 13 15 15 16 16 16 16 16 16 16 16 16 16 16 16 17 17 16 16 16 16 16 16 15 14 14 14 14 14 14 14 13 13 13 13 13 12 12 13 13 13 13
9 9 9 9 10 11 13 15 17 17 18 17 17 17 17 17 16 16 17 17 17 17 17 16 16 17 16 16 16 16 15 15 14 14 14 14 15 15 14 14 14 13 13 13 13 13 13 13 13
11 11 10 10 11 12 15 17 18 18 19 19 19 17 17 17 18 17 17 17 17 17 17 17 17 17 17 16 16 16 16 15 14 14 15 15 16 16 15 15 15 14 14 13 13 14 14 14 14
13 12 12 12 12 13 15 18 20 19 19 19 19 19 19 18 19 18 18 17 17 18 18 17 18 18 18 17 17 17 16 15 15 16 16 16 16 16 16 15 15 15 15 15 14 14 15 15 15
14 14 14 13 14 14 15 18 20 19 20 20 20 20 20 20 19 20 19 19 19 19 19 19 19 18 18 18 18 17 17 17 17 17 17 18 17 17 17 16 16 16 16 16 15 16 16 16 16
15 15 15 16 16 16 16 19 20 20 21 21 21 21 21 21 21 21 20 19 19 19 19 19 19 19 19 18 18 19 18 18 18 18 18 18 18 18 18 18 18 18 17 17 16 16 17 17 17
17 17 17 17 17 18 19 21 21 22 22 22 22 22 22 22 21 21 22 21 20 19 19 19 19 19 19 19 20 20 19 19 19 19 19 19 18 18 19 19 19 18 18 17 18 18 18 18 17
Wind_Direction
212 223 217 210 199 194 198 193 306 219 222 232 235 218 209 215 216 239 250 260 277 282 271 271 282 283 278 279 270 264 257 244 256 260 264 276 279 276 277 283 297 294 293 301 305 305 308 313 311
225 223 224 213 208 202 198 217 244 232 240 255 255 243 242 245 257 260 257 269 278 282 280 279 286 285 286 280 275 277 272 258 258 267 270 273 282 284 291 290 299 299 298 301 300 296 298 299 297
237 229 228 221 227 232 222 240 247 248 256 267 262 254 258 266 276 270 264 270 274 280 282 283 285 286 287 285 278 282 279 273 272 274 272 269 282 293 296 294 298 298 299 296 294 294 298 295 294
245 236 233 232 231 246 246 248 248 254 261 266 267 262 264 274 274 272 270 273 272 276 279 280 279 285 289 291 288 288 286 278 280 277 277 277 285 290 289 286 291 295 299 294 291 294 297 299 296
239 232 231 236 231 238 250 252 260 267 266 265 268 275 273 273 274 275 274 276 275 275 277 279 279 287 289 291 293 291 288 288 287 284 288 291 286 285 285 283 286 289 292 292 291 294 296 298 297
249 240 236 240 238 244 253 258 262 267 268 271 273 274 276 275 274 274 272 276 279 277 279 281 280 285 290 292 290 296 296 291 292 292 292 294 292 289 287 289 285 285 291 292 289 292 297 297 294
255 254 249 251 253 251 257 264 266 268 267 273 276 276 275 277 275 271 270 273 276 278 278 282 280 280 285 288 288 289 291 288 288 294 291 290 290 292 288 288 290 289 288 292 291 291 294 295 296
257 256 254 258 258 260 263 266 269 273 270 272 275 277 275 276 276 272 272 274 277 279 277 277 278 280 284 286 288 289 289 286 288 289 291 288 286 289 289 290 289 286 289 294 292 288 289 292 290
261 261 260 262 262 264 266 269 271 271 271 271 274 275 275 274 274 273 273 275 278 280 280 277 277 281 285 286 287 289 290 287 285 288 288 290 291 290 291 288 290 289 290 293 292 289 290 290 288
262 260 264 265 266 268 268 270 271 271 272 272 273 275 275 275 276 277 275 275 276 278 277 279 281 282 284 283 282 284 287 290 290 291 289 288 288 289 289 292 293 295 294 292 289 288 288 287 286
269 264 263 263 267 271 273 274 273 273 273 274 274 275 276 276 278 280 279 277 277 278 279 282 280 281 283 282 281 280 283 288 291 294 291 291 290 289 288 292 295 297 299 297 291 287 286 286 285
268 268 269 269 269 270 272 274 274 276 277 278 278 277 276 276 276 277 278 280 279 279 280 282 281 280 280 281 282 281 282 287 290 292 293 294 293 291 289 291 294 296 299 299 297 289 288 287 284
266 269 270 270 271 272 272 272 276 277 277 278 278 278 277 274 274 275 275 277 278 278 279 280 281 280 279 281 282 282 284 286 289 287 290 295 298 295 291 293 295 295 297 298 294 292 291 291 287
267 266 269 271 272 274 276 277 279 278 278 278 278 279 278 276 275 276 275 277 278 277 277 280 280 281 280 280 280 283 285 287 288 287 288 291 294 295 293 294 297 294 294 295 294 289 291 293 291
272 271 271 273 275 278 279 278 280 281 279 279 279 279 279 278 277 277 276 277 278 278 278 281 282 281 280 280 280 284 286 288 289 288 288 289 291 293 291 295 297 298 296 294 293 290 289 291 291
271 277 280 280 281 283 283 284 283 283 282 281 281 280 280 278 277 278 278 278 279 278 277 279 281 282 282 282 282 283 285 288 288 286 285 288 290 291 290 292 294 296 296 294 291 290 290 290 290
280 283 284 286 287 288 287 287 288 288 285 284 283 282 280 278 278 277 277 277 277 277 275 277 278 280 280 281 284 284 285 287 287 285 283 285 287 289 290 291 292 291 294 293 289 287 286 288 290
283 285 286 289 289 290 291 291 291 292 287 285 284 283 281 281 278 276 276 275 275 275 274 276 278 279 280 280 282 284 286 286 284 283 282 283 285 286 287 289 292 292 291 289 287 287 285 285 288
284 284 284 289 291 291 292 293 295 294 291 291 290 288 284 283 280 278 277 276 276 275 275 277 279 279 279 279 281 283 285 285 283 281 279 279 282 284 285 286 289 292 291 291 290 287 287 288 289
278 282 284 285 292 294 293 294 296 297 296 296 292 289 289 286 282 279 278 278 278 278 278 279 281 280 280 280 279 283 284 282 281 278 276 279 281 286 287 287 288 289 288 289 289 286 286 288 290
273 278 284 286 291 294 297 296 294 295 297 295 294 292 290 286 282 279 279 278 278 279 280 281 281 281 282 283 283 284 284 282 281 279 278 279 281 286 290 286 287 287 285 284 286 283 282 285 289
273 280 284 288 290 294 300 301 299 301 299 298 296 295 294 290 284 278 278 277 277 278 280 281 281 282 284 283 283 283 282 279 278 278 278 279 282 285 288 292 293 291 287 284 285 283 283 287 289
275 281 282 283 286 292 297 301 300 303 303 302 301 298 296 292 287 282 280 279 279 280 281 283 282 282 283 282 282 282 283 279 277 276 277 278 282 285 286 288 292 292 288 286 284 284 284 286 289
273 275 279 285 291 295 297 298 297 302 303 303 302 297 294 292 288 286 285 282 282 282 283 284 283 284 284 283 283 280 281 278 277 275 277 279 282 284 285 285 288 288 288 288 286 286 283 286 288
270 275 283 292 299 298 295 292 294 300 303 302 300 296 294 292 288 287 287 284 282 282 283 282 282 283 284 283 284 280 280 279 274 274 276 279 281 281 282 283 285 286 285 286 283 286 286 287 288
270 275 281 281 283 288 290 289 294 298 299 299 298 296 293 290 288 286 285 285 282 282 282 281 281 282 283 283 283 282 281 277 276 275 277 280 282 284 282 283 283 285 284 283 283 285 289 288 287
271 270 276 279 281 282 285 289 292 296 297 296 294 294 293 290 287 286 285 285 283 282 280 279 281 281 281 282 279 278 279 277 277 277 278 281 283 284 284 284 283 283 283 283 283 285 286 287 288
269 273 275 276 278 278 280 285 288 296 297 295 293 294 294 292 289 286 284 284 282 282 281 279 279 279 279 279 278 278 277 277 277 278 278 280 281 283 285 283 282 283 282 281 284 285 283 285 289
271 272 274 277 280 280 279 280 288 292 293 293 293 293 294 291 288 284 282 281 280 281 281 280 279 278 277 277 277 278 276 277 278 278 278 279 280 281 281 280 280 282 283 282 283 286 284 285 286
275 277 277 277 278 277 278 281 288 291 292 292 292 290 290 290 288 286 281 282 280 281 280 279 280 279 277 276 276 277 275 275 275 276 278 278 279 279 278 278 279 280 281 282 283 284 283 284 286
Height
5882 5883 5883 5884 5885 5885 5885 5885 5885 5885 5886 5886 5886 5886 5887 5887 5889 5891 5889 5888 5888 5888 5888 5888 5888 5888 5887 5887 5887 5887 5887 5887 5887 5887 5886 5886 5886 5886 5886 5886 5886 5886 5886 5885 5885 5885 5884 5884 5883
5882 5883 5884 5884 5884 5884 5885 5885 5886 5886 5886 5886 5886 5887 5887 5888 5888 5888 5888 5888 5888 5888 5888 5888 5888 5887 5887 5887 5887 5887 5886 5886 5886 5886 5886 5886 5886 5886 5886 5885 5885 5885 5885 5885 5885 5884 5884 5883 5883
5882 5883 5884 5884 5884 5884 5885 5885 5886 5886 5886 5886 5887 5887 5888 5888 5888 5888 5888 5888 5888 5888 5888 5887 5887 5887 5887 5886 5886 5886 5886 5886 5886 5886 5886 5886 5885 5885 5885 5885 5885 5884 5884 5884 5884 5883 5883 5883 5882
5882 5883 5884 5884 5883 5884 5884 5885 5886 5886 5886 5886 5887 5887 5887 5887 5887 5887 5887 5888 5888 5887 5887 5887 5887 5886 5886 5886 5886 5886 5886 5886 5885 5885 5885 5885 5885 5885 5884 5884 5884 5884 5884 5883 5883 5883 5882 5882 5881
5881 5882 5883 5883 5883 5883 5884 5885 5885 5885 5886 5886 5886 5886 5887 5887 5887 5887 5887 5887 5887 5887 5886 5886 5886 5886 5886 5885 5885 5885 5885 5885 5884 5884 5884 5884 5884 5884 5883 5883 5883 5883 5882 5882 5882 5881 5881 5881 5880
5881 5882 5882 5882 5882 5883 5883 5884 5884 5885 5885 5885 5886 5886 5886 5886 5886 5886 5886 5886 5886 5886 5886 5886 5886 5885 5885 5885 5884 5884 5884 5884 5883 5883 5883 5883 5883 5882 5882 5882 5882 5881 5881 5881 5880 5880 5880 5879 5879
5881 5881 5881 5881 5881 5882 5883 5883 5883 5884 5884 5884 5885 5885 5885 5885 5885 5885 5885 5885 5885 5885 5885 5885 5884 5884 5884 5884 5883 5883 5883 5883 5883 5883 5882 5882 5882 5881 5881 5881 5880 5880 5880 5879 5879 5879 5878 5878 5877
5880 5881 5881 5881 5881 5881 5882 5882 5882 5882 5883 5883 5884 5884 5884 5884 5884 5884 5884 5884 5884 5884 5884 5884 5883 5883 5883 5882 5882 5882 5882 5881 5881 5881 5881 5881 5880 5880 5880 5879 5879 5878 5878 5878 5878 5877 5877 5876 5875
5879 5881 5880 5880 5880 5881 5881 5881 5881 5881 5881 5882 5882 5882 5883 5883 5883 5883 5883 5883 5883 5882 5882 5882 5882 5881 5881 5881 5881 5881 5880 5880 5880 5880 5879 5879 5879 5879 5878 5878 5878 5877 5877 5876 5876 5875 5875 5874 5874
5878 5879 5879 5879 5879 5879 5880 5880 5880 5880 5880 5880 5880 5881 5881 5881 5881 5881 5881 5881 5881 5881 5880 5880 5880 5880 5880 5879 5879 5879 5879 5879 5878 5878 5878 5878 5878 5877 5877 5876 5876 5875 5874 5874 5874 5873 5873 5872 5872
5877 5878 5878 5877 5878 5878 5878 5879 5878 5878 5879 5879 5879 5879 5879 5879 5879 5879 5879 5879 5879 5879 5878 5878 5878 5878 5878 5877 5877 5877 5877 5877 5877 5877 5876 5876 5876 5875 5875 5874 5874 5873 5873 5872 5872 5871 5871 5870 5870
5876 5876 5876 5876 5877 5877 5877 5877 5877 5877 5877 5877 5877 5877 5877 5877 5877 5877 5877 5877 5877 5877 5876 5876 5876 5876 5876 5875 5875 5875 5875 5875 5875 5875 5874 5874 5874 5873 5873 5873 5872 5871 5871 5870 5870 5869 5868 5868 5868
5875 5875 5875 5875 5875 5875 5875 5875 5875 5875 5875 5875 5875 5875 5875 5875 5875 5875 5875 5875 5875 5875 5875 5875 5874 5874 5874 5873 5873 5873 5873 5873 5873 5873 5872 5872 5871 5871 5871 5870 5870 5869 5869 5868 5867 5867 5866 5866 5866
5873 5873 5874 5874 5874 5874 5874 5874 5874 5873 5873 5873 5873 5873 5873 5873 5872 5872 5873 5872 5873 5873 5873 5872 5872 5872 5872 5871 5871 5871 5871 5871 5871 5870 5870 5869 5869 5869 5868 5868 5867 5867 5866 5866 5865 5865 5864 5864 5863
5871 5872 5872 5872 5872 5872 5872 5872 5872 5871 5871 5871 5870 5870 5870 5870 5870 5870 5870 5870 5870 5870 5870 5870 5870 5870 5870 5869 5869 5869 5869 5868 5868 5868 5868 5867 5867 5866 5866 5866 5865 5864 5864 5863 5863 5862 5862 5861 5861
5870 5870 5871 5871 5870 5870 5872 5870 5869 5869 5869 5868 5868 5868 5868 5867 5867 5867 5867 5867 5867 5867 5867 5867 5867 5867 5867 5867 5867 5866 5866 5866 5866 5865 5865 5865 5864 5864 5864 5863 5863 5862 5861 5861 5860 5860 5859 5859 5859
5868 5869 5869 5869 5868 5868 5868 5868 5867 5866 5866 5866 5865 5865 5865 5864 5864 5865 5865 5865 5864 5864 5864 5864 5864 5864 5864 5864 5863 5863 5863 5863 5863 5862 5862 5862 5862 5861 5861 5860 5860 5860 5859 5858 5858 5857 5857 5857 5856
5867 5867 5867 5866 5866 5866 5866 5865 5865 5864 5864 5863 5862 5862 5862 5861 5861 5862 5862 5861 5861 5861 5861 5861 5861 5861 5861 5861 5860 5860 5860 5860 5860 5859 5859 5859 5859 5858 5858 5858 5857 5857 5856 5856 5855 5855 5854 5854 5854
5865 5865 5865 5865 5864 5864 5863 5863 5863 5861 5861 5860 5860 5859 5859 5858 5858 5858 5858 5858 5858 5858 5858 5858 5858 5858 5857 5857 5857 5857 5857 5856 5856 5856 5856 5856 5855 5855 5855 5855 5854 5854 5853 5853 5852 5852 5852 5852 5851
5863 5863 5863 5863 5862 5862 5861 5861 5861 5859 5859 5858 5857 5857 5856 5856 5855 5855 5855 5855 5855 5855 5855 5855 5854 5854 5854 5854 5854 5853 5853 5853 5853 5852 5852 5852 5852 5852 5852 5852 5851 5851 5850 5850 5850 5849 5849 5849 5849
5862 5862 5862 5861 5860 5860 5859 5859 5858 5857 5856 5856 5855 5854 5853 5853 5852 5852 5851 5851 5851 5851 5851 5851 5851 5851 5850 5850 5850 5850 5850 5849 5849 5849 5849 5849 5849 5849 5849 5848 5848 5848 5848 5847 5847 5847 5847 5846 5846
5860 5860 5859 5859 5858 5858 5858 5856 5856 5855 5854 5853 5852 5851 5850 5850 5849 5848 5848 5848 5848 5848 5848 5848 5848 5847 5847 5846 5846 5846 5846 5846 5846 5846 5846 5846 5847 5846 5846 5845 5845 5845 5845 5845 5844 5844 5844 5844 5843
5858 5858 5858 5857 5856 5856 5856 5855 5854 5852 5851 5851 5850 5849 5847 5847 5846 5845 5844 5844 5844 5844 5844 5844 5844 5843 5843 5843 5843 5843 5842 5843 5843 5843 5843 5843 5843 5843 5842 5842 5842 5842 5842 5842 5841 5841 5841 5841 5840
5856 5856 5855 5855 5854 5854 5854 5853 5851 5850 5849 5848 5847 5846 5844 5843 5842 5841 5841 5841 5841 5840 5840 5840 5840 5840 5839 5839 5839 5839 5839 5839 5839 5839 5840 5840 5840 5840 5839 5839 5839 5839 5839 5838 5838 5838 5838 5837 5837
5854 5854 5853 5853 5852 5852 5852 5851 5850 5848 5846 5845 5844 5842 5841 5840 5838 5838 5837 5837 5837 5837 5836 5836 5836 5836 5835 5835 5835 5835 5835 5835 5836 5836 5836 5836 5837 5837 5836 5836 5836 5836 5835 5835 5835 5835 5835 5834 5834
5851 5852 5852 5852 5851 5851 5850 5848 5847 5845 5844 5842 5840 5839 5838 5836 5834 5834 5834 5833 5833 5833 5832 5832 5832 5832 5832 5832 5831 5831 5831 5832 5832 5832 5832 5833 5833 5833 5833 5833 5832 5832 5832 5832 5832 5832 5831 5831 5831
5848 5848 5849 5849 5848 5848 5847 5845 5843 5842 5841 5839 5837 5835 5834 5833 5831 5829 5829 5829 5829 5829 5828 5828 5828 5828 5828 5827 5828 5828 5828 5828 5828 5828 5828 5829 5829 5829 5829 5829 5829 5828 5828 5828 5828 5827 5827 5827 5827
5846 5845 5845 5845 5844 5844 5844 5842 5840 5838 5837 5835 5833 5832 5830 5829 5827 5825 5824 5824 5824 5824 5824 5823 5823 5823 5823 5823 5823 5823 5824 5824 5824 5824 5825 5825 5825 5825 5825 5825 5825 5824 5824 5824 5824 5823 5823 5823 5823
5842 5842 5842 5841 5841 5840 5840 5840 5836 5835 5833 5831 5829 5827 5825 5824 5823 5821 5819 5819 5819 5819 5819 5819 5819 5819 5819 5819 5819 5819 5819 5819 5820 5820 5820 5820 5820 5820 5820 5820 5820 5820 5820 5819 5819 5819 5819 5819 5818
5838 5838 5838 5838 5837 5836 5835 5836 5832 5830 5828 5826 5824 5822 5820 5819 5817 5816 5815 5814 5814 5814 5814 5814 5814 5814 5814 5814 5814 5814 5815 5815 5815 5815 5815 5815 5815 5815 5815 5815 5815 5815 5815 5815 5815 5815 5814 5814 5813